Flag for Germany Weather past 2 weeks in Cologne, North Rhine-Westphalia, Germany

63 °F

Partly sunny.

Feels Like: 63 °F
Forecast: 51 / 58 °F
Wind: 9 mph from Southwest

Location: Koeln / Bonn

Current Time: Oct 7, 2015 at 3:11:17 PM

Latest Report: Oct 7, 2015 at 2:20 PM

Visibility: N/A

Pressure: 29.89 "Hg

Humidity: 73%

Dew point: 54 °F

Location of CologneLocation

Historic Weather in Cologne — Graph


Cologne temperature yesterday

Maximum temperature yesterday: 68 °F (at 12:20 PM)
Minimum temperature yesterday: 57 °F (at 12:20 AM)
Average temperature yesterday: 62 °F

Past Weeks' High & Low Weather Summary

High70 °F (Oct 2, 3:50 PM)100% (Sep 22, 1:20 PM)30.63 "Hg (Sep 22, 1:20 PM)
Low36 °F (Oct 2, 4:50 AM)37% (Sep 30, 4:50 PM)29.53 "Hg (Sep 22, 2:50 PM)
Average54 °F80%30.15 "Hg
* Reported Sep 22 1:20 PM — Oct 7 1:50 PM, Cologne, Weather by CustomWeather, © 2015

Note: Actual official high and low records may vary slightly from our data, if they occured in-between our weather recording intervals... More about our weather records


Cologne weather history for previous 24 hours

Time TempWeatherWind HumidityBarometerVisibility
1:50 PM
Wed, Oct 7
63 °FBroken clouds.9 mph73%29.86 "HgN/A
1:20 PM63 °FPartly sunny.9 mph73%29.86 "HgN/A
12:50 PM64 °FPartly sunny.10 mph78%29.86 "HgN/A
12:20 PM63 °FPartly sunny.9 mph73%29.86 "HgN/A
11:50 AM61 °FPartly sunny.10 mph83%29.86 "HgN/A
11:20 AM61 °FPartly sunny.8 mph83%29.83 "HgN/A
10:50 AM61 °FPartly sunny.9 mph88%29.83 "HgN/A
10:20 AM61 °FBroken clouds.8 mph88%29.83 "HgN/A
9:50 AM59 °FBroken clouds.9 mph94%29.80 "HgN/A
9:20 AM59 °FBroken clouds.6 mph94%29.80 "HgN/A
8:50 AM57 °FBroken clouds.6 mph100%29.80 "HgN/A
8:20 AM57 °FPartly cloudy.6 mph100%29.77 "HgN/A
7:50 AM57 °FPartly cloudy.5 mph100%29.77 "HgN/A
7:20 AM57 °FPassing clouds.3 mph100%29.77 "Hg5 mi
6:50 AM59 °FPassing clouds.5 mph100%29.77 "Hg4 mi
6:20 AM57 °FLight rain. Passing clouds.2 mph100%29.74 "HgN/A
5:50 AM57 °FPartly cloudy.3 mph100%29.74 "HgN/A
5:20 AM59 °FPartly cloudy.5 mph94%29.74 "HgN/A
4:50 AM57 °FLight rain. Partly cloudy.7 mph100%29.74 "HgN/A
4:20 AM59 °FClear.6 mph94%29.74 "Hg10 mi
3:50 AM59 °FClear.5 mph94%29.71 "Hg10 mi
3:20 AM59 °FClear.8 mph94%29.71 "Hg10 mi
2:50 AM59 °FLight rain. Partly cloudy.7 mph94%29.71 "HgN/A
2:20 AM59 °FPassing clouds.7 mph94%29.71 "HgN/A
1:50 AM61 °FPartly cloudy.7 mph88%29.71 "HgN/A
1:20 AM61 °FClear.6 mph88%29.71 "Hg10 mi
12:50 AM59 °FClear.8 mph94%29.68 "Hg10 mi
12:20 AM61 °FClear.7 mph94%29.68 "Hg10 mi
11:50 PM
Tue, Oct 6
61 °FClear.8 mph94%29.68 "Hg10 mi
11:20 PM61 °FPassing clouds.7 mph94%29.68 "HgN/A
10:50 PM61 °FPassing clouds.9 mph94%29.68 "HgN/A
10:20 PM61 °FClear.9 mph94%29.68 "Hg10 mi
9:50 PM61 °FClear.9 mph94%29.68 "Hg10 mi
9:20 PM61 °FClear.8 mph94%29.68 "Hg10 mi
8:50 PM59 °FClear.5 mph94%29.68 "Hg10 mi
8:20 PM61 °FClear.7 mph94%29.68 "Hg10 mi
7:50 PM61 °FBroken clouds.6 mph94%29.65 "HgN/A
7:20 PM61 °FPartly sunny.9 mph94%29.65 "HgN/A
6:50 PM63 °FPartly sunny.6 mph94%29.65 "HgN/A
6:20 PM63 °FPartly sunny.8 mph100%29.62 "HgN/A
5:50 PM64 °FPartly sunny.7 mph94%29.62 "HgN/A
5:20 PM64 °FPartly sunny.9 mph94%29.62 "HgN/A
4:50 PM64 °FLight rain. Broken clouds.5 mph94%29.59 "HgN/A
4:20 PM64 °FLight rain. Broken clouds.5 mph94%29.62 "HgN/A
3:50 PM64 °FLots of rain. Partly sunny.14 mph88%29.62 "HgN/A
3:20 PM68 °FPartly sunny.8 mph78%29.62 "HgN/A
Weather by CustomWeather, © 2015

See weather overviewHow to use our weather pages